Radiation Dose at Monitoring Post of Fukushima Daini Nuclear Power Station
Date,Time,MP-1(microSv/h),MP-2(microSv/h),MP-3(microSv/h),MP-4(microSv/h),MP-5(microSv/h),MP-6(microSv/h),MP-7(microSv/h),Wind Direction,Wind Velocity(m/s),Rain
2020/05/01,00:00,0.176,0.164,0.274,0.249,0.260,0.141,0.085,south-southwest,2.3,No
2020/05/01,00:10,0.177,0.162,0.275,0.250,0.259,0.140,0.086,south,2.9,No
2020/05/01,00:20,0.178,0.164,0.274,0.249,0.259,0.140,0.085,south,6.1,No
2020/05/01,00:30,0.176,0.163,0.275,0.248,0.260,0.139,0.085,south,4.1,No
2020/05/01,00:40,0.178,0.162,0.275,0.249,0.259,0.141,0.086,south,3.1,No
2020/05/01,00:50,0.176,0.163,0.274,0.248,0.262,0.141,0.085,south,4.9,No
2020/05/01,01:00,0.177,0.163,0.276,0.251,0.259,0.141,0.085,south,6.8,No
2020/05/01,01:10,0.177,0.163,0.275,0.249,0.259,0.141,0.085,south-southwest,8.1,No
2020/05/01,01:20,0.177,0.163,0.273,0.250,0.260,0.140,0.085,south-southwest,8.4,No
2020/05/01,01:30,0.178,0.164,0.277,0.249,0.258,0.139,0.085,south-southwest,4.8,No
2020/05/01,01:40,0.176,0.164,0.275,0.247,0.260,0.140,0.086,south-southwest,4.7,No
2020/05/01,01:50,0.177,0.163,0.275,0.250,0.258,0.140,0.085,south-southwest,4.9,No
2020/05/01,02:00,0.177,0.163,0.275,0.248,0.261,0.140,0.086,south,5.3,No
2020/05/01,02:10,0.177,0.163,0.275,0.248,0.259,0.140,0.085,south-southwest,4.6,No
2020/05/01,02:20,0.178,0.164,0.276,0.249,0.260,0.141,0.086,south-southwest,4.1,No
2020/05/01,02:30,0.177,0.164,0.274,0.247,0.260,0.140,0.085,south-southwest,5.2,No
2020/05/01,02:40,0.178,0.164,0.275,0.250,0.258,0.140,0.085,south-southwest,5.0,No
2020/05/01,02:50,0.178,0.164,0.276,0.250,0.261,0.140,0.085,south-southwest,4.2,No
2020/05/01,03:00,0.177,0.163,0.275,0.247,0.259,0.141,0.085,southwest,4.3,No
2020/05/01,03:10,0.177,0.164,0.275,0.250,0.260,0.139,0.085,west-southwest,5.3,No
2020/05/01,03:20,0.176,0.163,0.275,0.250,0.260,0.140,0.086,west-southwest,6.2,No
2020/05/01,03:30,0.178,0.162,0.274,0.247,0.259,0.140,0.086,west-southwest,7.1,No
2020/05/01,03:40,0.176,0.163,0.275,0.249,0.261,0.140,0.085,west-southwest,5.3,No
2020/05/01,03:50,0.177,0.164,0.275,0.249,0.259,0.140,0.085,southwest,3.7,No
2020/05/01,04:00,0.177,0.163,0.274,0.249,0.261,0.141,0.085,southwest,3.5,No
2020/05/01,04:10,0.176,0.163,0.277,0.250,0.260,0.141,0.085,south-southwest,3.3,No
2020/05/01,04:20,0.178,0.163,0.274,0.248,0.258,0.140,0.085,south-southwest,3.7,No
2020/05/01,04:30,0.176,0.162,0.275,0.248,0.260,0.139,0.085,southwest,4.1,No
2020/05/01,04:40,0.177,0.163,0.276,0.248,0.259,0.140,0.085,south-southwest,3.7,No
2020/05/01,04:50,0.179,0.162,0.273,0.247,0.259,0.139,0.084,south-southwest,3.8,No
2020/05/01,05:00,0.176,0.163,0.275,0.250,0.259,0.140,0.086,south-southwest,3.2,No
2020/05/01,05:10,0.177,0.163,0.274,0.249,0.259,0.139,0.085,south-southwest,2.3,No
2020/05/01,05:20,0.178,0.163,0.274,0.249,0.260,0.141,0.085,south-southwest,1.5,No
2020/05/01,05:30,0.177,0.163,0.276,0.250,0.259,0.141,0.085,south-southwest,1.7,No
2020/05/01,05:40,0.177,0.163,0.275,0.249,0.260,0.141,0.085,south-southwest,2.3,No
2020/05/01,05:50,0.177,0.163,0.276,0.247,0.258,0.139,0.085,southwest,2.7,No
2020/05/01,06:00,0.178,0.163,0.274,0.249,0.261,0.139,0.085,southwest,2.6,No
2020/05/01,06:10,0.177,0.163,0.273,0.248,0.258,0.140,0.085,southwest,2.9,No
2020/05/01,06:20,0.177,0.162,0.276,0.249,0.260,0.140,0.085,southwest,1.7,No
2020/05/01,06:30,0.178,0.163,0.273,0.248,0.259,0.140,0.085,south-southeast,1.8,No
2020/05/01,06:40,0.177,0.162,0.275,0.249,0.259,0.140,0.086,south-southeast,0.7,No
2020/05/01,06:50,0.177,0.163,0.274,0.248,0.260,0.140,0.085,-,CALM,No
2020/05/01,07:00,0.177,0.164,0.275,0.248,0.259,0.140,0.086,east-northeast,1.2,No
2020/05/01,07:10,0.178,0.164,0.273,0.249,0.260,0.140,0.085,north-northwest,2.3,No
2020/05/01,07:20,0.177,0.163,0.274,0.247,0.258,0.139,0.086,north-northwest,1.1,No
2020/05/01,07:30,0.178,0.163,0.273,0.250,0.258,0.141,0.085,northeast,0.8,No
2020/05/01,07:40,0.177,0.164,0.273,0.247,0.259,0.140,0.085,north-northwest,0.9,No
2020/05/01,07:50,0.179,0.163,0.271,0.248,0.257,0.141,0.085,west-northwest,1.2,No
2020/05/01,08:00,0.176,0.163,0.275,0.248,0.260,0.140,0.086,-,CALM,No
2020/05/01,08:10,0.177,0.163,0.274,0.248,0.258,0.141,0.085,north,0.7,No
2020/05/01,08:20,0.177,0.163,0.275,0.249,0.262,0.140,0.086,north,1.0,No
2020/05/01,08:30,0.178,0.163,0.274,0.249,0.258,0.141,0.086,-,CALM,No
2020/05/01,08:40,0.177,0.164,0.276,0.250,0.259,0.140,0.085,-,CALM,No
2020/05/01,08:50,0.178,0.163,0.273,0.246,0.258,0.140,0.085,-,CALM,No
2020/05/01,09:00,0.175,0.164,0.276,0.249,0.257,0.140,0.084,-,CALM,No
2020/05/01,09:10,0.177,0.162,0.273,0.248,0.260,0.140,0.085,east-northeast,1.3,No
2020/05/01,09:20,0.176,0.163,0.275,0.249,0.257,0.140,0.085,east-northeast,0.7,No
2020/05/01,09:30,0.178,0.162,0.273,0.248,0.257,0.140,0.085,east,1.5,No
2020/05/01,09:40,0.176,0.163,0.273,0.247,0.261,0.140,0.086,north-northeast,0.6,No
2020/05/01,09:50,0.177,0.162,0.277,0.249,0.258,0.140,0.085,southeast,0.8,No
2020/05/01,10:00,0.177,0.163,0.274,0.248,0.258,0.139,0.085,east,1.2,No
2020/05/01,10:10,0.176,0.162,0.273,0.247,0.261,0.140,0.085,southeast,2.4,No
2020/05/01,10:20,0.177,0.163,0.275,0.251,0.258,0.139,0.085,southeast,2.9,No
2020/05/01,10:30,0.175,0.162,0.273,0.247,0.257,0.140,0.085,south-southeast,2.2,No
2020/05/01,10:40,0.179,0.162,0.276,0.246,0.261,0.141,0.085,south-southeast,2.9,No
2020/05/01,10:50,0.176,0.163,0.276,0.250,0.258,0.139,0.086,south-southeast,3.1,No
2020/05/01,11:00,0.176,0.163,0.274,0.249,0.257,0.140,0.086,south,4.1,No
2020/05/01,11:10,0.177,0.162,0.271,0.247,0.259,0.140,0.084,south,4.6,No
2020/05/01,11:20,0.177,0.162,0.272,0.246,0.261,0.139,0.085,south-southeast,5.6,No
2020/05/01,11:30,0.175,0.162,0.274,0.249,0.258,0.140,0.085,south-southeast,6.6,No
2020/05/01,11:40,0.174,0.162,0.276,0.249,0.258,0.139,0.085,south-southeast,7.6,No
2020/05/01,11:50,0.175,0.161,0.275,0.247,0.256,0.140,0.084,south-southeast,7.8,No
2020/05/01,12:00,0.176,0.162,0.273,0.246,0.255,0.139,0.084,south-southeast,7.1,No
2020/05/01,12:10,0.178,0.163,0.272,0.250,0.260,0.138,0.084,south-southeast,7.2,No
2020/05/01,12:20,0.176,0.162,0.273,0.251,0.260,0.140,0.084,south-southeast,7.0,No
2020/05/01,12:30,0.176,0.161,0.272,0.248,0.259,0.139,0.085,south-southeast,6.9,No
2020/05/01,12:40,0.175,0.161,0.271,0.247,0.258,0.139,0.084,south-southeast,7.3,No
2020/05/01,12:50,0.175,0.162,0.271,0.245,0.256,0.139,0.084,south,7.2,No
2020/05/01,13:00,0.175,0.163,0.273,0.246,0.257,0.139,0.085,south-southeast,7.0,No
2020/05/01,13:10,0.175,0.162,0.272,0.249,0.256,0.139,0.085,south-southeast,7.8,No
2020/05/01,13:20,0.175,0.163,0.274,0.251,0.257,0.140,0.084,south-southeast,8.4,No
2020/05/01,13:30,0.175,0.161,0.273,0.249,0.258,0.141,0.084,south-southeast,8.9,No
2020/05/01,13:40,0.177,0.161,0.273,0.248,0.258,0.139,0.084,south-southeast,10.6,No
2020/05/01,13:50,0.177,0.163,0.277,0.248,0.259,0.140,0.085,south-southeast,10.3,No
2020/05/01,14:00,0.176,0.162,0.278,0.250,0.261,0.139,0.085,south-southeast,10.7,No
2020/05/01,14:10,0.175,0.162,0.275,0.249,0.260,0.140,0.085,south-southeast,8.2,No
2020/05/01,14:20,0.178,0.162,0.273,0.247,0.257,0.139,0.086,south-southeast,9.8,No
2020/05/01,14:30,0.177,0.162,0.275,0.249,0.258,0.139,0.084,south-southeast,10.6,No
2020/05/01,14:40,0.175,0.162,0.278,0.251,0.262,0.140,0.085,south-southeast,8.7,No
2020/05/01,14:50,0.178,0.163,0.275,0.248,0.260,0.141,0.084,south-southeast,9.5,No
2020/05/01,15:00,0.177,0.162,0.278,0.251,0.260,0.140,0.084,south-southeast,9.5,No
2020/05/01,15:10,0.177,0.163,0.276,0.250,0.261,0.140,0.084,south-southeast,9.5,No
2020/05/01,15:20,0.177,0.163,0.278,0.251,0.260,0.140,0.085,south-southeast,9.5,No
2020/05/01,15:30,0.176,0.164,0.277,0.250,0.261,0.139,0.084,south,9.5,No
2020/05/01,15:40,0.177,0.163,0.275,0.251,0.259,0.140,0.085,south,8.9,No
2020/05/01,15:50,0.176,0.164,0.276,0.249,0.261,0.139,0.084,south,8.4,No
2020/05/01,16:00,0.177,0.163,0.275,0.248,0.259,0.139,0.084,south-southeast,9.2,No
2020/05/01,16:10,0.176,0.163,0.278,0.250,0.259,0.140,0.085,south-southeast,9.2,No
2020/05/01,16:20,0.178,0.164,0.275,0.247,0.260,0.139,0.084,south-southeast,8.8,No
2020/05/01,16:30,0.176,0.162,0.276,0.250,0.258,0.140,0.085,south-southeast,8.8,No
2020/05/01,16:40,0.176,0.164,0.274,0.250,0.262,0.139,0.084,south-southeast,7.5,No
2020/05/01,16:50,0.177,0.163,0.273,0.250,0.258,0.140,0.085,south-southeast,8.2,No
2020/05/01,17:00,0.176,0.163,0.276,0.250,0.261,0.140,0.084,south,7.2,No
2020/05/01,17:10,0.178,0.162,0.273,0.248,0.260,0.140,0.085,south,7.0,No
2020/05/01,17:20,0.177,0.163,0.276,0.250,0.258,0.141,0.085,south,6.3,No
2020/05/01,17:30,0.177,0.163,0.274,0.248,0.260,0.139,0.084,south,5.8,No
2020/05/01,17:40,0.177,0.163,0.275,0.250,0.257,0.140,0.085,south,4.2,No
2020/05/01,17:50,0.176,0.163,0.275,0.247,0.260,0.140,0.084,south-southwest,2.9,No
2020/05/01,18:00,0.177,0.163,0.275,0.250,0.258,0.140,0.085,south-southwest,3.4,No
2020/05/01,18:10,0.175,0.162,0.275,0.248,0.259,0.139,0.085,south-southwest,3.4,No
2020/05/01,18:20,0.177,0.163,0.275,0.251,0.260,0.139,0.084,south-southwest,4.7,No
2020/05/01,18:30,0.175,0.163,0.277,0.249,0.259,0.139,0.085,south-southwest,4.6,No
2020/05/01,18:40,0.178,0.163,0.274,0.249,0.260,0.139,0.084,south,3.3,No
2020/05/01,18:50,0.176,0.163,0.276,0.250,0.259,0.140,0.085,south,4.2,No
2020/05/01,19:00,0.177,0.164,0.274,0.249,0.261,0.140,0.085,south-southwest,2.8,No
2020/05/01,19:10,0.176,0.163,0.277,0.250,0.258,0.140,0.085,south-southwest,5.6,No
2020/05/01,19:20,0.177,0.163,0.274,0.250,0.262,0.141,0.084,south-southwest,5.8,No
2020/05/01,19:30,0.177,0.163,0.276,0.249,0.257,0.140,0.084,southwest,5.7,No
2020/05/01,19:40,0.176,0.164,0.275,0.250,0.262,0.140,0.085,southwest,4.8,No
2020/05/01,19:50,0.177,0.163,0.276,0.249,0.259,0.141,0.085,-,CALM,No
2020/05/01,20:00,0.178,0.164,0.276,0.251,0.260,0.139,0.084,-,CALM,No
2020/05/01,20:10,0.178,0.163,0.277,0.250,0.259,0.141,0.085,southwest,1.4,No
2020/05/01,20:20,0.178,0.164,0.275,0.250,0.261,0.140,0.084,west-southwest,2.0,No
2020/05/01,20:30,0.177,0.164,0.278,0.249,0.259,0.140,0.085,west-southwest,2.8,No
2020/05/01,20:40,0.177,0.163,0.275,0.251,0.262,0.139,0.085,west,2.0,No
2020/05/01,20:50,0.177,0.165,0.276,0.249,0.260,0.140,0.085,west-northwest,0.9,No
2020/05/01,21:00,0.178,0.163,0.277,0.252,0.261,0.139,0.084,-,CALM,No
2020/05/01,21:10,0.177,0.164,0.276,0.249,0.260,0.139,0.085,-,CALM,No
2020/05/01,21:20,0.178,0.164,0.277,0.251,0.260,0.140,0.085,west,0.7,No
2020/05/01,21:30,0.178,0.163,0.277,0.249,0.261,0.140,0.085,southwest,1.3,No
2020/05/01,21:40,0.179,0.163,0.277,0.250,0.261,0.140,0.086,west-southwest,1.5,No
2020/05/01,21:50,0.177,0.164,0.276,0.251,0.258,0.140,0.085,west-northwest,2.2,No
2020/05/01,22:00,0.178,0.165,0.277,0.249,0.261,0.140,0.085,west-northwest,2.8,No
2020/05/01,22:10,0.177,0.163,0.275,0.250,0.258,0.140,0.086,west-northwest,3.3,No
2020/05/01,22:20,0.179,0.164,0.278,0.249,0.260,0.141,0.086,west,0.9,No
2020/05/01,22:30,0.176,0.163,0.275,0.251,0.260,0.140,0.086,-,CALM,No
2020/05/01,22:40,0.179,0.164,0.277,0.247,0.260,0.140,0.085,west-southwest,0.6,No
2020/05/01,22:50,0.177,0.164,0.274,0.251,0.260,0.140,0.085,west-northwest,1.2,No
2020/05/01,23:00,0.178,0.163,0.276,0.247,0.260,0.141,0.085,west-northwest,3.1,No
2020/05/01,23:10,0.178,0.165,0.276,0.249,0.260,0.141,0.085,west-northwest,1.6,No
2020/05/01,23:20,0.178,0.163,0.275,0.249,0.261,0.140,0.085,west,1.7,No
2020/05/01,23:30,0.179,0.164,0.277,0.249,0.259,0.141,0.086,west-southwest,0.7,No
2020/05/01,23:40,0.178,0.164,0.276,0.249,0.261,0.140,0.087,west,0.8,No
2020/05/01,23:50,0.178,0.164,0.279,0.250,0.258,0.140,0.085,southwest,1.3,No
